Date String (YYYY-MM-DD hh:mm:ss) UTC,Instrument flags,Ambient pressure (hPa),Sample flow (lpm),Bypass flow (lpm),Sample temperature (°C),Ambient temperature (°C),ASC tube jacket temperature (°C),LED temperature (°C),Box temperature (°C),Sample RH (%),Span deviation,Mass concentration (μg/m³),Mass concentration (μg/m³),Mass concentration (μg/m³)
DateTimeUTC,F1_M11,P_M11,Q1_M11,Q2_M11,T1_M11,T2_M11,T3_M11,T4_M11,T5_M11,U1_M11,ZSPAN_M11,X0_M11,X2_M11,X1_M11
2023-04-29 05:00:00,,0834.0,5.00,0.00,24.2,22.5,00.0,32.7,25.6,13.2,0000.0,0010.28,0003.97,0002.04
2023-04-29 05:01:00,,0834.0,5.01,0.00,24.1,22.5,00.0,32.6,25.6,13.2,0000.0,0010.28,0003.96,0002.03
2023-04-29 05:02:00,,0834.0,5.01,0.00,24.1,22.5,00.0,32.6,25.6,13.2,0000.0,0010.46,0004.01,0002.06
2023-04-29 05:03:00,,0834.0,5.00,0.00,24.1,22.5,00.0,32.6,25.6,13.2,0000.0,0010.53,0004.04,0002.05
2023-04-29 05:04:00,,0834.0,4.99,0.00,24.1,22.5,00.0,32.6,25.6,13.2,0000.0,0010.60,0004.05,0002.07
2023-04-29 05:05:00,,0834.0,4.99,0.00,24.1,22.5,00.0,32.6,25.6,13.4,0000.0,0010.60,0004.04,0002.08
2023-04-29 05:06:00,,0834.0,5.01,0.00,24.1,22.4,00.0,32.6,25.6,13.4,0000.0,0010.51,0004.04,0002.08
2023-04-29 05:07:00,,0833.9,5.01,0.00,24.1,22.4,00.0,32.6,25.5,13.2,0000.0,0010.31,0004.10,0002.09
2023-04-29 05:08:00,,0833.9,5.01,0.00,24.1,22.4,00.0,32.6,25.5,13.2,0000.0,0010.32,0004.13,0002.08
2023-04-29 05:09:00,,0834.0,5.00,0.00,24.1,22.4,00.0,32.6,25.5,13.7,0000.0,0010.55,0004.09,0002.05
2023-04-29 05:10:00,,0834.0,5.00,0.00,24.0,22.4,00.0,32.5,25.5,13.6,0000.0,0010.43,0004.02,0002.04
2023-04-29 05:11:00,,0834.0,4.99,0.00,24.0,22.3,00.0,32.5,25.5,13.3,0000.0,0010.37,0004.01,0002.03
2023-04-29 05:12:00,,0833.9,5.01,0.00,24.0,22.3,00.0,32.5,25.5,13.1,0000.0,0010.36,0004.07,0002.02
2023-04-29 05:13:00,,0834.0,5.00,0.00,24.0,22.3,00.0,32.5,25.5,13.1,0000.0,0010.38,0004.06,0002.00
2023-04-29 05:14:00,,0834.0,5.00,0.00,24.0,22.3,00.0,32.5,25.5,13.2,0000.0,0010.44,0004.04,0002.00
2023-04-29 05:15:00,,0834.0,4.99,0.00,24.0,22.3,00.0,32.5,25.5,13.1,0000.0,0010.41,0004.04,0001.98
2023-04-29 05:16:00,,0834.0,5.00,0.00,24.0,22.4,00.0,32.5,25.5,14.6,0000.0,0010.59,0004.08,0001.96
2023-04-29 05:17:00,,0834.0,5.00,0.00,24.0,22.5,00.0,32.5,25.6,14.6,0000.0,0010.72,0004.11,0001.97
2023-04-29 05:18:00,,0834.0,5.00,0.00,24.0,22.6,00.0,32.5,25.6,13.7,0000.0,0010.64,0004.11,0001.97
2023-04-29 05:19:00,,0834.0,5.01,0.00,24.1,22.6,00.0,32.5,25.6,13.5,0000.0,0011.38,0004.13,0001.97
2023-04-29 05:20:00,,0834.0,5.00,0.00,24.1,22.7,00.0,32.5,25.6,13.6,0000.0,0011.23,0004.20,0002.00
2023-04-29 05:21:00,,0834.0,5.00,0.00,24.1,22.8,00.0,32.5,25.7,14.0,0000.0,0011.25,0004.25,0002.01
2023-04-29 05:22:00,,0834.0,5.01,0.00,24.1,22.8,00.0,32.5,25.7,13.8,0000.0,0010.98,0004.26,0002.03
2023-04-29 05:23:00,,0834.0,5.00,0.00,24.2,22.9,00.0,32.5,25.8,13.5,0000.0,0011.03,0004.24,0002.03
2023-04-29 05:24:00,,0834.0,5.01,0.00,24.2,23.0,00.0,32.5,25.9,13.8,0000.0,0010.82,0004.21,0002.02
2023-04-29 05:25:00,,0834.0,4.99,0.00,24.2,23.1,00.0,32.6,25.9,13.9,0000.0,0010.68,0004.16,0002.01
2023-04-29 05:26:00,,0834.0,5.00,0.00,24.3,23.2,00.0,32.6,26.0,13.7,0000.0,0010.50,0004.09,0002.01
2023-04-29 05:27:00,,0834.0,5.00,0.00,24.3,23.2,00.0,32.6,26.0,13.7,0000.0,0010.30,0004.06,0002.01
2023-04-29 05:28:00,,0834.0,5.01,0.00,24.4,23.3,00.0,32.6,26.0,14.3,0000.0,0010.33,0004.08,0002.01
2023-04-29 05:29:00,,0834.0,5.00,0.00,24.4,23.3,00.0,32.6,26.1,15.4,0000.0,0010.31,0004.09,0002.06
2023-04-29 05:30:00,,0834.0,4.99,0.00,24.4,23.4,00.0,32.7,26.1,16.1,0000.0,0009.61,0004.10,0002.13
2023-04-29 05:31:00,,0833.9,5.01,0.00,24.5,23.4,00.0,32.7,26.2,15.9,0000.0,0009.63,0004.13,0002.20
2023-04-29 05:32:00,,0833.9,5.01,0.00,24.5,23.4,00.0,32.7,26.2,15.5,0000.0,0009.87,0004.23,0002.26
2023-04-29 05:33:00,,0834.0,5.01,0.00,24.5,23.4,00.0,32.7,26.1,15.5,0000.0,0010.16,0004.24,0002.30
2023-04-29 05:34:00,,0834.0,4.99,0.00,24.5,23.4,00.0,32.8,26.1,15.7,0000.0,0009.95,0004.20,0002.36
2023-04-29 05:35:00,,0834.0,5.00,0.00,24.5,23.4,00.0,32.8,26.2,15.7,0000.0,0009.97,0004.24,0002.45
2023-04-29 05:36:00,,0834.0,5.01,0.00,24.5,23.4,00.0,32.8,26.2,14.9,0000.0,0010.16,0004.23,0002.49
2023-04-29 05:37:00,,0834.0,5.00,0.00,24.6,23.4,00.0,32.8,26.2,14.4,0000.0,0010.35,0004.27,0002.51
2023-04-29 05:38:00,,0834.0,4.99,0.00,24.6,23.5,00.0,32.8,26.2,14.3,0000.0,0010.49,0004.29,0002.52
2023-04-29 05:39:00,,0833.9,5.00,0.00,24.6,23.5,00.0,32.8,26.3,14.1,0000.0,0010.53,0004.34,0002.53
2023-04-29 05:40:00,,0834.0,5.01,0.00,24.7,23.5,00.0,32.9,26.3,13.8,0000.0,0010.48,0004.34,0002.50
2023-04-29 05:41:00,,0833.9,5.00,0.00,24.7,23.5,00.0,32.9,26.3,13.7,0000.0,0010.86,0004.31,0002.43
2023-04-29 05:42:00,,0833.9,4.99,0.00,24.7,23.5,00.0,32.9,26.3,13.8,0000.0,0010.89,0004.25,0002.36
2023-04-29 05:43:00,,0834.0,4.99,0.00,24.7,23.4,00.0,32.9,26.3,13.6,0000.0,0010.67,0004.15,0002.29
2023-04-29 05:44:00,,0833.9,5.01,0.00,24.7,23.4,00.0,32.9,26.3,13.6,0000.0,0010.61,0004.19,0002.25
2023-04-29 05:45:00,,0833.9,5.01,0.00,24.7,23.4,00.0,33.0,26.3,14.0,0000.0,0011.03,0004.21,0002.21
2023-04-29 05:46:00,,0833.9,5.00,0.00,24.7,23.5,00.0,33.0,26.4,14.7,0000.0,0011.53,0004.22,0002.16
2023-04-29 05:47:00,,0833.9,4.99,0.00,24.7,23.5,00.0,33.0,26.4,15.2,0000.0,0011.20,0004.21,0002.15
2023-04-29 05:48:00,,0833.9,4.99,0.00,24.8,23.5,00.0,33.0,26.4,14.9,0000.0,0010.85,0004.18,0002.18
2023-04-29 05:49:00,,0833.9,5.01,0.00,24.8,23.5,00.0,33.0,26.4,14.7,0000.0,0010.74,0004.15,0002.20
2023-04-29 05:50:00,,0833.9,5.01,0.00,24.8,23.5,00.0,33.0,26.3,14.6,0000.0,0010.70,0004.09,0002.22
2023-04-29 05:51:00,,0833.8,4.99,0.00,24.7,23.4,00.0,33.0,26.3,14.3,0000.0,0010.59,0004.04,0002.23
2023-04-29 05:52:00,,0833.9,4.98,0.00,24.7,23.4,00.0,33.0,26.3,13.9,0000.0,0010.04,0004.00,0002.23
2023-04-29 05:53:00,,0833.9,5.01,0.00,24.7,23.3,00.0,33.0,26.2,14.1,0000.0,0009.75,0003.98,0002.23
2023-04-29 05:54:00,,0833.9,5.01,0.00,24.7,23.3,00.0,33.0,26.2,14.2,0000.0,0009.72,0003.98,0002.24
2023-04-29 05:55:00,,0833.8,5.00,0.00,24.7,23.3,00.0,33.0,26.3,14.3,0000.0,0009.50,0003.92,0002.24
2023-04-29 05:56:00,,0833.8,4.99,0.00,24.7,23.3,00.0,33.0,26.3,14.3,0000.0,0008.72,0003.83,0002.24
2023-04-29 05:57:00,,0833.9,4.99,0.00,24.7,23.3,00.0,33.1,26.3,14.2,0000.0,0008.16,0003.75,0002.21
2023-04-29 05:58:00,,0833.9,5.01,0.00,24.7,23.4,00.0,33.1,26.3,14.3,0000.0,0008.16,0003.79,0002.19
2023-04-29 05:59:00,,0833.9,5.01,0.00,24.7,23.4,00.0,33.1,26.4,14.5,0000.0,0008.37,0003.83,0002.16
